Location: Clinton NY
(43.0598°N, 75.3602°W)
Time: 13:45:56
(UTC-05:00)

ISS - All Passes

Search period start: 04 March 2015 00:00
Search period end: 14 March 2015 01:00
Orbit: 395 x 408 km, 51.6° (Epoch: 04 March)

Date Brightness Start Highest point End Pass type
(mag) Time Alt. Az. Time Alt. Az. Time Alt. Az.
04 Mar - 08:17:18 10° SW 08:20:24 48° SE 08:23:31 10° ENE daylight
04 Mar - 09:54:02 10° W 09:56:56 29° NNW 09:59:49 10° NE daylight
04 Mar - 11:31:48 10° NW 11:34:03 17° N 11:36:19 10° NE daylight
04 Mar - 13:08:21 10° NW 13:11:12 28° NNE 13:14:03 10° E daylight
04 Mar - 14:44:37 10° WNW 14:47:46 54° SW 14:50:55 10° SE daylight
05 Mar - 07:24:25 10° SSW 07:27:05 25° SE 07:29:49 10° E daylight
05 Mar - 09:00:14 10° W 09:03:20 44° NNW 09:06:27 10° NE daylight
05 Mar - 10:37:56 10° NW 10:40:18 18° N 10:42:40 10° NE daylight
05 Mar - 12:14:54 10° NW 12:17:29 22° NNE 12:20:04 10° ENE daylight
05 Mar - 13:51:01 10° NW 13:54:14 79° NNE 13:57:28 10° ESE daylight
05 Mar - 15:28:37 10° WSW 15:30:15 13° SW 15:31:46 10° SSW daylight
06 Mar - 06:31:47 10° SSE 06:33:21 13° SE 06:35:01 10° E daylight
06 Mar - 08:06:08 10° WSW 08:09:20 78° NW 08:12:34 10° NE daylight
06 Mar - 09:43:30 10° WNW 09:46:05 21° NNW 09:48:39 10° NE daylight
06 Mar - 11:20:52 10° NW 11:23:14 18° N 11:25:36 10° NE daylight
06 Mar - 12:57:02 10° NW 13:00:09 44° NNE 13:03:15 10° ESE daylight
06 Mar - 14:33:39 10° W 14:36:21 24° SW 14:39:02 10° SSE daylight
07 Mar - 07:11:48 10° SW 07:14:57 54° SE 07:18:06 10° ENE daylight
07 Mar - 08:48:34 10° W 08:51:25 28° NNW 08:54:16 10° NE daylight
07 Mar - 10:26:12 10° NW 10:28:28 17° N 10:30:44 10° NE daylight
07 Mar - 12:02:36 10° NW 12:05:29 29° NNE 12:08:23 10° E daylight
07 Mar - 13:38:48 10° WNW 13:41:55 48° SW 13:45:02 10° SE daylight
08 Mar - 07:17:23 10° SSW 07:20:09 27° SE 07:22:56 10° ENE daylight
08 Mar - 08:53:15 10° W 08:56:20 42° NNW 08:59:25 10° NE daylight
08 Mar - 10:30:52 10° NW 10:33:13 18° N 10:35:33 10° NE daylight
08 Mar - 12:07:41 10° NW 12:10:17 22° NNE 12:12:54 10° ENE daylight
08 Mar - 13:43:42 10° NW 13:46:55 84° NNE 13:50:09 10° ESE daylight
08 Mar - 15:21:26 10° WSW 15:22:49 12° SW 15:24:05 10° SSW daylight
09 Mar - 06:23:15 10° SSE 06:24:56 14° SE 06:26:43 10° E visible
09 Mar - 07:57:38 10° WSW 08:00:50 74° NNW 08:04:04 10° NE daylight
09 Mar - 09:34:56 10° WNW 09:37:30 21° NNW 09:40:03 10° NE daylight
09 Mar - 11:12:10 10° NW 11:14:32 19° N 11:16:55 10° NE daylight
09 Mar - 12:48:14 10° NW 12:51:21 46° NNE 12:54:28 10° ESE daylight
09 Mar - 14:24:47 10° W 14:27:28 24° SW 14:30:04 10° SSE daylight
10 Mar - 07:01:49 10° SW 07:04:58 55° SE 07:08:07 10° ENE daylight
10 Mar - 08:38:30 10° W 08:41:20 28° NNW 08:44:11 10° NE daylight
10 Mar - 10:16:01 10° NW 10:18:17 17° N 10:20:34 10° NE daylight
10 Mar - 11:52:20 10° NW 11:55:13 29° NNE 11:58:07 10° E daylight
10 Mar - 13:28:25 10° WNW 13:31:33 48° SW 13:34:39 10° SE daylight
11 Mar - 06:05:58 10° SSW 06:08:41 26° SE 06:11:28 10° ENE visible
11 Mar - 07:41:42 10° W 07:44:47 42° NNW 07:47:51 10° NE daylight
11 Mar - 09:19:12 10° NW 09:21:33 18° N 09:23:53 10° NE daylight
11 Mar - 10:55:56 10° NW 10:58:31 22° NNE 11:01:08 10° ENE daylight
11 Mar - 12:31:51 10° NW 12:35:05 83° NE 12:38:17 10° ESE daylight
11 Mar - 14:09:24 10° WSW 14:10:52 12° SW 14:12:13 10° SSW daylight
12 Mar - 05:10:29 10° SSE 05:12:01 13° SE 05:13:39 10° ESE visible
12 Mar - 06:44:37 10° WSW 06:47:48 78° NNW 06:51:01 10° NE visible
12 Mar - 08:21:47 10° WNW 08:24:21 21° NNW 08:26:55 10° NE daylight
12 Mar - 09:58:56 10° NW 10:01:18 18° N 10:03:40 10° NE daylight
12 Mar - 11:34:54 10° NW 11:38:01 44° NNE 11:41:07 10° E daylight
12 Mar - 13:11:19 10° W 13:14:02 25° SW 13:16:43 10° SSE daylight
13 Mar - 05:47:22 10° SW 05:50:27 50° SE 05:53:35 10° ENE visible
13 Mar - 07:23:52 10° W 07:26:43 29° NNW 07:29:35 10° NE daylight
13 Mar - 09:01:18 10° NW 09:03:33 17° N 09:05:49 10° NE daylight
13 Mar - 10:37:32 10° NW 10:40:23 28° NNE 10:43:15 10° E daylight
13 Mar - 12:13:30 10° WNW 12:16:39 52° SW 12:19:47 10° SE daylight
